Hourly Weather Russkiy Noledur

Today, 22 April, Thursday

Time Temperature Precipitation Wind Pressure Humidity
00:00 0°C° 0.3 mm 7 mps 754 mmHg 95%
01:00 0°C° 0.1 mm 7 mps 754 mmHg 94%
02:00 0°C° 0.1 mm 7 mps 754 mmHg 94%
03:00 0°C° 0 mm 7 mps 754 mmHg 93%
04:00 +1°C° 0 mm 6 mps 754 mmHg 93%
05:00 +1°C° 0 mm 6 mps 754 mmHg 93%
06:00 +1°C° 0 mm 6 mps 754 mmHg 93%
07:00 +2°C° 0 mm 5 mps 754 mmHg 92%
08:00 +2°C° 0 mm 5 mps 755 mmHg 91%
09:00 +3°C° 0 mm 5 mps 755 mmHg 90%
10:00 +5°C° 0 mm 5 mps 755 mmHg 85%
11:00 +6°C° 0 mm 5 mps 755 mmHg 81%
12:00 +7°C° 0 mm 5 mps 755 mmHg 76%
13:00 +7°C° 0 mm 5 mps 755 mmHg 77%
14:00 +7°C° 0 mm 5 mps 755 mmHg 79%
15:00 +7°C° 0 mm 5 mps 755 mmHg 81%
16:00 +7°C° 0 mm 5 mps 755 mmHg 81%
17:00 +7°C° 0 mm 6 mps 755 mmHg 81%
18:00 +7°C° 0 mm 6 mps 755 mmHg 82%
19:00 +6°C° 0.1 mm 5 mps 755 mmHg 85%
20:00 +6°C° 0.1 mm 5 mps 755 mmHg 88%
21:00 +5°C° 0.1 mm 4 mps 755 mmHg 91%
22:00 +4°C° 0 mm 4 mps 755 mmHg 92%
23:00 +4°C° 0 mm 4 mps 755 mmHg 92%

Tomorrow, 23 April, Friday

Time Temperature Precipitation Wind Pressure Humidity
00:00 +3°C° 0 mm 3 mps 755 mmHg 93%
01:00 +3°C° 0 mm 3 mps 756 mmHg 94%
02:00 +3°C° 0 mm 2 mps 756 mmHg 94%
03:00 +3°C° 0 mm 2 mps 756 mmHg 95%
04:00 +4°C° 0 mm 2 mps 756 mmHg 94%
05:00 +4°C° 0 mm 2 mps 757 mmHg 93%
06:00 +6°C° 0 mm 1 mps 757 mmHg 92%
07:00 +6°C° 0 mm 2 mps 757 mmHg 84%
08:00 +8°C° 0 mm 2 mps 757 mmHg 77%
09:00 +10°C° 0 mm 2 mps 757 mmHg 70%
10:00 +12°C° 0 mm 2 mps 757 mmHg 64%
11:00 +13°C° 0 mm 2 mps 757 mmHg 58%
12:00 +14°C° 0 mm 2 mps 757 mmHg 51%
13:00 +15°C° 0 mm 2 mps 756 mmHg 49%
14:00 +15°C° 0 mm 2 mps 756 mmHg 47%
15:00 +15°C° 0 mm 2 mps 756 mmHg 45%
16:00 +14°C° 0 mm 3 mps 756 mmHg 51%
17:00 +13°C° 0 mm 3 mps 756 mmHg 57%
18:00 +12°C° 0 mm 3 mps 756 mmHg 63%
19:00 +11°C° 0 mm 3 mps 755 mmHg 69%
20:00 +9°C° 0 mm 3 mps 755 mmHg 75%
21:00 +8°C° 0 mm 3 mps 755 mmHg 81%
22:00 +8°C° 0 mm 3 mps 755 mmHg 83%
23:00 +7°C° 0 mm 3 mps 755 mmHg 85%

Day after tomorrow, 24 April, Saturday

Time Temperature Precipitation Wind Pressure Humidity
00:00 +7°C° 0 mm 3 mps 754 mmHg 87%
01:00 +5°C° 0 mm 3 mps 754 mmHg 88%
02:00 +5°C° 0 mm 3 mps 753 mmHg 89%
03:00 +4°C° 0 mm 3 mps 753 mmHg 89%
04:00 +5°C° 0 mm 3 mps 753 mmHg 89%
05:00 +5°C° 0 mm 4 mps 752 mmHg 88%
06:00 +5°C° 0 mm 4 mps 752 mmHg 88%
07:00 +5°C° 0 mm 4 mps 751 mmHg 87%
08:00 +6°C° 0 mm 5 mps 751 mmHg 86%
09:00 +6°C° 0 mm 5 mps 750 mmHg 84%
10:00 +6°C° 0.4 mm 5 mps 750 mmHg 87%
11:00 +6°C° 0.4 mm 4 mps 750 mmHg 90%
12:00 +5°C° 0.4 mm 4 mps 749 mmHg 93%
13:00 +5°C° 0.3 mm 4 mps 749 mmHg 93%
14:00 +5°C° 0.3 mm 4 mps 748 mmHg 93%
15:00 +5°C° 0.3 mm 4 mps 748 mmHg 93%
16:00 +5°C° 0.2 mm 4 mps 747 mmHg 93%
17:00 +5°C° 0.2 mm 4 mps 747 mmHg 93%
18:00 +5°C° 0.2 mm 4 mps 747 mmHg 93%
19:00 +5°C° 0.1 mm 4 mps 746 mmHg 93%
20:00 +5°C° 0.1 mm 5 mps 746 mmHg 93%
21:00 +5°C° 0.1 mm 5 mps 745 mmHg 93%
22:00 +5°C° 0 mm 5 mps 745 mmHg 94%
23:00 +5°C° 0 mm 5 mps 744 mmHg 95%

25 April, Sunday

Time Temperature Precipitation Wind Pressure Humidity
00:00 +3°C° 0 mm 5 mps 744 mmHg 95%
01:00 +3°C° 0.4 mm 5 mps 743 mmHg 95%
02:00 +3°C° 0.4 mm 5 mps 742 mmHg 95%
03:00 +3°C° 0.4 mm 5 mps 742 mmHg 95%
04:00 +3°C° 0.6 mm 5 mps 742 mmHg 95%
05:00 +2°C° 0.6 mm 5 mps 742 mmHg 96%
06:00 +2°C° 0.6 mm 5 mps 742 mmHg 96%
07:00 +2°C° 0 mm 5 mps 742 mmHg 91%
08:00 +3°C° 0 mm 5 mps 742 mmHg 87%
09:00 +3°C° 0 mm 5 mps 742 mmHg 82%
10:00 +5°C° 0 mm 5 mps 743 mmHg 77%
11:00 +4°C° 0 mm 6 mps 743 mmHg 72%
12:00 +5°C° 0 mm 6 mps 744 mmHg 67%
13:00 +7°C° 0.1 mm 6 mps 744 mmHg 62%
14:00 +7°C° 0.1 mm 5 mps 745 mmHg 57%
15:00 +8°C° 0.1 mm 5 mps 745 mmHg 52%
16:00 +8°C° 0.1 mm 5 mps 745 mmHg 54%
17:00 +7°C° 0.1 mm 4 mps 746 mmHg 56%
18:00 +7°C° 0.1 mm 4 mps 746 mmHg 57%
19:00 +6°C° 0.2 mm 4 mps 746 mmHg 65%
20:00 +4°C° 0.2 mm 4 mps 747 mmHg 73%
21:00 +3°C° 0.2 mm 4 mps 747 mmHg 80%
22:00 +3°C° 0 mm 4 mps 748 mmHg 80%
23:00 +1°C° 0 mm 4 mps 748 mmHg 81%

26 April, Monday

Time Temperature Precipitation Wind Pressure Humidity
00:00 +1°C° 0 mm 4 mps 748 mmHg 81%
01:00 0°C° 0 mm 4 mps 748 mmHg 82%
02:00 0°C° 0 mm 4 mps 748 mmHg 82%
03:00 0°C° 0 mm 4 mps 749 mmHg 83%
04:00 0°C° 0 mm 4 mps 749 mmHg 82%
05:00 0°C° 0 mm 5 mps 749 mmHg 82%
06:00 +1°C° 0 mm 5 mps 749 mmHg 81%
07:00 +2°C° 0 mm 5 mps 750 mmHg 72%
08:00 +3°C° 0 mm 6 mps 750 mmHg 63%
09:00 +5°C° 0 mm 6 mps 750 mmHg 53%
10:00 +7°C° 0 mm 6 mps 750 mmHg 50%
11:00 +8°C° 0 mm 6 mps 749 mmHg 46%
12:00 +8°C° 0 mm 6 mps 749 mmHg 42%
13:00 +8°C° 0.1 mm 6 mps 749 mmHg 46%
14:00 +8°C° 0.1 mm 6 mps 749 mmHg 49%
15:00 +8°C° 0.1 mm 6 mps 749 mmHg 53%
16:00 +8°C° 0.1 mm 5 mps 749 mmHg 58%
17:00 +7°C° 0.1 mm 5 mps 749 mmHg 63%
18:00 +7°C° 0.1 mm 5 mps 748 mmHg 68%
19:00 +6°C° 0 mm 4 mps 748 mmHg 72%
20:00 +5°C° 0 mm 3 mps 748 mmHg 77%
21:00 +5°C° 0 mm 2 mps 748 mmHg 81%
22:00 +5°C° 0 mm 2 mps 748 mmHg 81%
23:00 +5°C° 0 mm 2 mps 747 mmHg 80%

27 April, Tuesday

Time Temperature Precipitation Wind Pressure Humidity
00:00 +5°C° 0 mm 2 mps 747 mmHg 80%
01:00 +4°C° 0 mm 2 mps 747 mmHg 79%
02:00 +4°C° 0 mm 2 mps 746 mmHg 79%
03:00 +3°C° 0 mm 2 mps 746 mmHg 78%
04:00 +3°C° 0 mm 3 mps 745 mmHg 76%
05:00 +3°C° 0 mm 3 mps 745 mmHg 74%
06:00 +3°C° 0 mm 3 mps 745 mmHg 72%
07:00 +5°C° 0 mm 4 mps 744 mmHg 66%
08:00 +7°C° 0 mm 6 mps 744 mmHg 61%
09:00 +8°C° 0 mm 7 mps 743 mmHg 55%
10:00 +6°C° 0.3 mm 7 mps 743 mmHg 64%
11:00 +5°C° 0.3 mm 7 mps 742 mmHg 73%
12:00 +5°C° 0.3 mm 7 mps 742 mmHg 82%
13:00 +5°C° 0.4 mm 7 mps 742 mmHg 76%
14:00 +5°C° 0.4 mm 6 mps 742 mmHg 70%
15:00 +5°C° 0.4 mm 6 mps 741 mmHg 63%
16:00 +5°C° 0.1 mm 6 mps 741 mmHg 66%
17:00 +5°C° 0.1 mm 5 mps 741 mmHg 68%
18:00 +5°C° 0.1 mm 5 mps 741 mmHg 70%
19:00 +3°C° 0 mm 4 mps 742 mmHg 75%
20:00 +2°C° 0 mm 3 mps 742 mmHg 80%
21:00 +1°C° 0 mm 3 mps 742 mmHg 84%
22:00 +1°C° 0 mm 3 mps 742 mmHg 85%
23:00 0°C° 0 mm 4 mps 742 mmHg 85%
Show more